Date String (YYYY-MM-DD hh:mm:ss) UTC,Instrument flags,absolute air pressure of the measurement (hPa),sample flow rate (lpm),inlet stack bypass flow (lpm),air temperature of the measurement (°C),ambient temperature measured by the external sensor (°C),aerosol sample conditioner tube jacket temperature (°C),OPC LED temperature (°C),internal box temperature (°C),relative humidity of the measurement (%),span deviation,mass concentration of particles derived from Lorenz-Mie calculation of OPC scattering (μg/m³),mass concentration of particles derived from Lorenz-Mie calculation of OPC scattering (μg/m³),mass concentration of particles derived from Lorenz-Mie calculation of OPC scattering (μg/m³)
DateTimeUTC,F1_M11,P_M11,Q1_M11,Q2_M11,T1_M11,T2_M11,T3_M11,T4_M11,T5_M11,U1_M11,ZSPAN_M11,X0_M11,X2_M11,X1_M11
2023-11-22 17:00:00,SystemResetWarning,0832.0,5.00,000.00,024.2,023.6,000.0,032.2,025.6,9.0,0000.0,0002.59,0000.84,0000.57
2023-11-22 17:01:00,SystemResetWarning,0832.0,5.00,000.00,024.2,023.6,000.0,032.2,025.6,8.9,0000.0,0002.33,0000.78,0000.54
2023-11-22 17:02:00,SystemResetWarning,0831.8,5.00,000.00,024.2,023.6,000.0,032.2,025.6,9.1,0000.0,0001.82,0000.72,0000.52
2023-11-22 17:03:00,SystemResetWarning,0831.8,5.00,000.00,024.2,023.6,000.0,032.3,025.6,9.1,0000.0,0001.67,0000.67,0000.50
2023-11-22 17:04:00,SystemResetWarning,0831.8,5.00,000.00,024.3,023.6,000.0,032.3,025.6,9.1,0000.0,0001.09,0000.67,0000.49
2023-11-22 17:05:00,SystemResetWarning,0831.9,5.00,000.00,024.3,023.7,000.0,032.3,025.7,9.0,0000.0,0001.17,0000.68,0000.48
2023-11-22 17:06:00,SystemResetWarning,0831.9,5.00,000.00,024.3,023.7,000.0,032.3,025.7,9.0,0000.0,0001.19,0000.68,0000.49
2023-11-22 17:07:00,SystemResetWarning,0832.0,5.00,000.00,024.3,023.7,000.0,032.4,025.7,9.0,0000.0,0001.23,0000.69,0000.49
2023-11-22 17:08:00,SystemResetWarning,0832.2,5.00,000.00,024.4,023.7,000.0,032.4,025.8,9.1,0000.0,0001.18,0000.69,0000.48
2023-11-22 17:09:00,SystemResetWarning,0832.1,5.00,000.00,024.4,023.8,000.0,032.4,025.8,8.9,0000.0,0001.22,0000.72,0000.48
2023-11-22 17:10:00,SystemResetWarning,0832.2,5.00,000.00,024.4,023.8,000.0,032.4,025.8,8.8,0000.0,0001.28,0000.71,0000.47
2023-11-22 17:11:00,SystemResetWarning,0832.2,5.01,000.00,024.4,023.8,000.0,032.4,025.9,8.9,0000.0,0001.26,0000.71,0000.47
2023-11-22 17:12:00,SystemResetWarning,0832.2,5.01,000.00,024.4,023.8,000.0,032.5,025.9,8.8,0000.0,0001.31,0000.72,0000.47
2023-11-22 17:13:00,SystemResetWarning,0832.3,5.00,000.00,024.5,023.8,000.0,032.5,025.9,8.9,0000.0,0001.40,0000.74,0000.47
2023-11-22 17:14:00,SystemResetWarning,0831.7,5.00,000.00,024.5,023.9,000.0,032.5,025.9,8.8,0000.0,0001.59,0000.74,0000.47
2023-11-22 17:15:00,SystemResetWarning,0831.7,4.99,000.00,024.5,023.9,000.0,032.5,026.0,8.9,0000.0,0001.71,0000.75,0000.47
2023-11-22 17:16:00,SystemResetWarning,0831.7,4.99,000.00,024.5,023.9,000.0,032.6,026.0,9.0,0000.0,0001.60,0000.71,0000.46
2023-11-22 17:17:00,SystemResetWarning,0831.7,5.00,000.00,024.5,023.9,000.0,032.6,026.0,8.9,0000.0,0001.52,0000.69,0000.46
2023-11-22 17:18:00,SystemResetWarning,0831.7,5.00,000.00,024.6,023.9,000.0,032.6,026.0,8.9,0000.0,0001.46,0000.67,0000.45
2023-11-22 17:19:00,SystemResetWarning,0831.7,5.01,000.00,024.6,024.0,000.0,032.6,026.0,8.9,0000.0,0001.53,0000.69,0000.45
2023-11-22 17:20:00,SystemResetWarning,0831.7,5.00,000.00,024.6,024.0,000.0,032.6,026.0,9.1,0000.0,0002.63,0000.67,0000.45
2023-11-22 17:21:00,SystemResetWarning,0831.7,5.00,000.00,024.6,024.0,000.0,032.7,026.0,9.2,0000.0,0002.56,0000.67,0000.45
2023-11-22 17:22:00,SystemResetWarning,0831.7,5.00,000.00,024.6,024.0,000.0,032.7,026.1,9.6,0000.0,0002.52,0000.65,0000.44
2023-11-22 17:23:00,SystemResetWarning,0831.7,4.99,000.00,024.7,024.0,000.0,032.7,026.1,9.7,0000.0,0002.53,0000.66,0000.44
2023-11-22 17:24:00,SystemResetWarning,0831.7,4.99,000.00,024.7,024.0,000.0,032.7,026.1,9.9,0000.0,0002.42,0000.62,0000.44
2023-11-22 17:25:00,SystemResetWarning,0831.7,5.00,000.00,024.7,024.1,000.0,032.7,026.1,10.2,0000.0,0002.64,0000.63,0000.44
2023-11-22 17:26:00,SystemResetWarning,0831.6,5.01,000.00,024.7,024.1,000.0,032.8,026.2,10.0,0000.0,0003.18,0000.64,0000.44
2023-11-22 17:27:00,SystemResetWarning,0831.6,5.01,000.00,024.8,024.1,000.0,032.8,026.2,9.9,0000.0,0003.30,0000.68,0000.45
2023-11-22 17:28:00,SystemResetWarning,0831.6,5.01,000.00,024.8,024.1,000.0,032.8,026.2,9.9,0000.0,0003.47,0000.72,0000.46
2023-11-22 17:29:00,SystemResetWarning,0831.6,5.00,000.00,024.8,024.2,000.0,032.8,026.2,9.8,0000.0,0005.24,0000.77,0000.47
2023-11-22 17:30:00,SystemResetWarning,0831.6,5.00,000.00,024.8,024.2,000.0,032.8,026.3,9.7,0000.0,0005.28,0000.76,0000.48
2023-11-22 17:31:00,SystemResetWarning,0831.6,4.99,000.00,024.8,024.2,000.0,032.9,026.3,9.9,0000.0,0004.44,0000.79,0000.50
2023-11-22 17:32:00,SystemResetWarning,0831.6,5.00,000.00,024.9,024.2,000.0,032.9,026.3,9.8,0000.0,0004.31,0000.85,0000.50
2023-11-22 17:33:00,SystemResetWarning,0831.6,5.01,000.00,024.9,024.2,000.0,032.9,026.3,9.9,0000.0,0004.35,0000.87,0000.52
2023-11-22 17:34:00,SystemResetWarning,0831.6,5.01,000.00,024.9,024.3,000.0,032.9,026.3,9.7,0000.0,0004.47,0000.87,0000.53
2023-11-22 17:35:00,SystemResetWarning,0831.5,5.01,000.00,024.9,024.3,000.0,032.9,026.3,9.5,0000.0,0004.54,0000.91,0000.54
2023-11-22 17:36:00,SystemResetWarning,0831.6,5.00,000.00,024.9,024.3,000.0,033.0,026.4,9.1,0000.0,0004.42,0000.93,0000.55
2023-11-22 17:37:00,SystemResetWarning,0831.5,4.99,000.00,025.0,024.3,000.0,033.0,026.4,8.8,0000.0,0003.80,0000.92,0000.55
2023-11-22 17:38:00,SystemResetWarning,0831.6,4.99,000.00,025.0,024.3,000.0,033.0,026.4,8.9,0000.0,0003.86,0000.91,0000.56
2023-11-22 17:39:00,SystemResetWarning,0831.5,5.01,000.00,025.0,024.4,000.0,033.0,026.4,8.9,0000.0,0003.87,0000.88,0000.55
2023-11-22 17:40:00,SystemResetWarning,0831.5,5.01,000.00,025.0,024.4,000.0,033.1,026.4,8.8,0000.0,0002.42,0000.86,0000.55
2023-11-22 17:41:00,SystemResetWarning,0831.5,5.00,000.00,025.0,024.4,000.0,033.1,026.5,9.0,0000.0,0002.08,0000.85,0000.54
2023-11-22 17:42:00,SystemResetWarning,0831.5,5.00,000.00,025.1,024.4,000.0,033.1,026.5,9.0,0000.0,0002.00,0000.82,0000.53
2023-11-22 17:43:00,SystemResetWarning,0831.5,4.99,000.00,025.1,024.4,000.0,033.1,026.5,8.8,0000.0,0001.88,0000.75,0000.52
2023-11-22 17:44:00,SystemResetWarning,0831.5,4.99,000.00,025.1,024.4,000.0,033.1,026.6,8.9,0000.0,0001.94,0000.75,0000.51
2023-11-22 17:45:00,SystemResetWarning,0831.4,5.00,000.00,025.1,024.5,000.0,033.2,026.6,9.1,0000.0,0001.83,0000.74,0000.51
2023-11-22 17:46:00,SystemResetWarning,0831.4,5.00,000.00,025.2,024.5,000.0,033.2,026.6,9.1,0000.0,0001.81,0000.72,0000.49
2023-11-22 17:47:00,SystemResetWarning,0831.5,5.00,000.00,025.2,024.5,000.0,033.2,026.6,9.0,0000.0,0001.85,0000.70,0000.49
2023-11-22 17:48:00,SystemResetWarning,0831.4,5.00,000.00,025.2,024.5,000.0,033.2,026.6,9.0,0000.0,0001.74,0000.72,0000.48
2023-11-22 17:49:00,SystemResetWarning,0831.4,5.00,000.00,025.2,024.6,000.0,033.2,026.7,8.7,0000.0,0001.62,0000.70,0000.47
2023-11-22 17:50:00,SystemResetWarning,0831.4,5.00,000.00,025.3,024.6,000.0,033.3,026.7,8.7,0000.0,0001.50,0000.68,0000.46
2023-11-22 17:51:00,SystemResetWarning,0831.4,5.00,000.00,025.3,024.6,000.0,033.3,026.7,8.7,0000.0,0001.51,0000.68,0000.45
2023-11-22 17:52:00,SystemResetWarning,0831.3,5.01,000.00,025.3,024.6,000.0,033.3,026.7,8.7,0000.0,0001.56,0000.66,0000.45
2023-11-22 17:53:00,SystemResetWarning,0831.4,5.00,000.00,025.3,024.7,000.0,033.3,026.7,8.7,0000.0,0001.58,0000.67,0000.45
2023-11-22 17:54:00,SystemResetWarning,0831.3,4.99,000.00,025.3,024.7,000.0,033.3,026.7,8.7,0000.0,0001.71,0000.69,0000.46
2023-11-22 17:55:00,SystemResetWarning,0831.3,4.99,000.00,025.4,024.7,000.0,033.4,026.8,8.6,0000.0,0002.23,0000.68,0000.46
2023-11-22 17:56:00,SystemResetWarning,0831.3,5.00,000.00,025.4,024.7,000.0,033.4,026.8,8.6,0000.0,0002.33,0000.67,0000.45
2023-11-22 17:57:00,SystemResetWarning,0831.3,5.00,000.00,025.4,024.7,000.0,033.4,026.8,8.4,0000.0,0002.69,0000.65,0000.45
2023-11-22 17:58:00,SystemResetWarning,0831.3,5.01,000.00,025.4,024.8,000.0,033.4,026.8,8.4,0000.0,0003.09,0000.62,0000.45
2023-11-22 17:59:00,SystemResetWarning,0831.3,5.01,000.00,025.4,024.8,000.0,033.5,026.9,8.7,0000.0,0003.02,0000.60,0000.45
